TimeCST,TemperatureF,Dew PointF,Humidity,Sea Level PressureIn,VisibilityMPH,Wind Direction,Wind SpeedMPH,Gust SpeedMPH,PrecipitationIn,Events,Conditions,WindDirDegrees,DateUTC
12:15 AM,24.8,21.2,86,29.86,7.0,SW,4.6,-,N/A,,Clear,220,2013-02-13 06:15:00
12:35 AM,23.0,21.2,93,29.86,7.0,SW,4.6,-,N/A,,Clear,220,2013-02-13 06:35:00
12:55 AM,23.0,21.2,93,29.85,7.0,SW,4.6,-,N/A,,Clear,220,2013-02-13 06:55:00
1:15 AM,23.0,19.4,86,29.85,7.0,SW,5.8,-,N/A,,Clear,220,2013-02-13 07:15:00
1:35 AM,24.8,21.2,86,29.85,7.0,SW,3.5,-,N/A,,Clear,230,2013-02-13 07:35:00
1:55 AM,24.8,21.2,86,29.84,7.0,Calm,Calm,-,N/A,,Clear,0,2013-02-13 07:55:00
2:15 AM,24.8,21.2,86,29.83,7.0,Calm,Calm,-,N/A,,Clear,0,2013-02-13 08:15:00
2:35 AM,24.8,21.2,86,29.82,7.0,Calm,Calm,-,N/A,,Clear,0,2013-02-13 08:35:00
2:55 AM,23.0,19.4,86,29.81,7.0,SSW,3.5,-,N/A,,Clear,210,2013-02-13 08:55:00
3:15 AM,23.0,21.2,93,29.81,5.0,Calm,Calm,-,N/A,,Clear,0,2013-02-13 09:15:00
3:35 AM,23.0,21.2,93,29.80,7.0,SSW,3.5,-,N/A,,Clear,210,2013-02-13 09:35:00
3:55 AM,23.0,21.2,93,29.80,7.0,SSW,4.6,-,N/A,,Clear,210,2013-02-13 09:55:00
4:15 AM,23.0,21.2,93,29.79,7.0,SSW,4.6,-,N/A,,Clear,200,2013-02-13 10:15:00
4:35 AM,23.0,19.4,86,29.79,5.0,SW,4.6,-,N/A,,Clear,220,2013-02-13 10:35:00
4:55 AM,21.2,19.4,93,29.78,5.0,SW,4.6,-,N/A,,Clear,220,2013-02-13 10:55:00
5:15 AM,23.0,21.2,93,29.78,5.0,SW,4.6,-,N/A,,Clear,220,2013-02-13 11:15:00
5:35 AM,21.2,19.4,93,29.77,5.0,Calm,Calm,-,N/A,,Clear,0,2013-02-13 11:35:00
5:55 AM,23.0,21.2,93,29.77,5.0,Calm,Calm,-,N/A,,Clear,0,2013-02-13 11:55:00
6:45 AM,21.2,19.4,93,29.76,4.0,Calm,Calm,-,N/A,,Clear,0,2013-02-13 12:45:00
7:45 AM,21.2,19.4,93,29.76,3.0,Calm,Calm,-,N/A,,Clear,0,2013-02-13 13:45:00
9:45 AM,30.2,24.8,80,29.75,5.0,SSW,5.8,-,N/A,,Haze,210,2013-02-13 15:45:00
11:45 AM,35.6,26.6,70,29.74,10.0,WSW,9.2,-,N/A,,Overcast,240,2013-02-13 17:45:00
12:45 PM,37.4,26.6,65,29.72,10.0,WSW,11.5,-,N/A,,Overcast,250,2013-02-13 18:45:00
1:45 PM,39.2,26.6,61,29.69,10.0,WSW,8.1,-,N/A,,Scattered Clouds,250,2013-02-13 19:45:00
2:45 PM,39.2,26.6,61,29.69,10.0,WSW,8.1,17.3,N/A,,Overcast,250,2013-02-13 20:45:00
3:45 PM,39.2,26.6,61,29.69,10.0,WSW,11.5,17.3,N/A,,Scattered Clouds,240,2013-02-13 21:45:00
4:45 PM,37.4,26.6,65,29.70,10.0,WSW,8.1,-,N/A,,Clear,240,2013-02-13 22:45:00
5:45 PM,35.6,26.6,70,29.71,10.0,WSW,8.1,-,N/A,,Clear,250,2013-02-13 23:45:00
6:45 PM,33.8,26.6,75,29.72,10.0,WSW,6.9,-,N/A,,Scattered Clouds,240,2013-02-14 00:45:00
7:45 PM,32.0,26.6,80,29.72,10.0,SW,8.1,-,N/A,,Clear,230,2013-02-14 01:45:00
8:15 PM,32.0,26.6,80,29.71,10.0,WSW,6.9,-,N/A,,Overcast,240,2013-02-14 02:15:00
8:35 PM,32.0,26.6,80,29.72,10.0,WSW,5.8,-,N/A,,Mostly Cloudy,240,2013-02-14 02:35:00
8:45 PM,32.0,26.6,80,29.71,10.0,WSW,6.9,-,N/A,,Overcast,240,2013-02-14 02:45:00
8:55 PM,32.0,26.6,80,29.71,10.0,SW,5.8,-,N/A,,Scattered Clouds,230,2013-02-14 02:55:00
9:15 PM,32.0,26.6,80,29.71,10.0,SW,4.6,-,N/A,,Scattered Clouds,230,2013-02-14 03:15:00
9:35 PM,32.0,26.6,80,29.71,10.0,SW,4.6,-,N/A,,Mostly Cloudy,230,2013-02-14 03:35:00
9:55 PM,32.0,28.4,87,29.71,10.0,SW,5.8,-,N/A,,Scattered Clouds,230,2013-02-14 03:55:00
10:15 PM,32.0,28.4,87,29.71,10.0,SW,6.9,-,N/A,,Overcast,230,2013-02-14 04:15:00
10:35 PM,32.0,28.4,87,29.71,10.0,WSW,4.6,-,N/A,,Overcast,240,2013-02-14 04:35:00
10:55 PM,32.0,28.4,87,29.70,10.0,WSW,5.8,-,N/A,,Overcast,240,2013-02-14 04:55:00
11:15 PM,32.0,28.4,87,29.69,10.0,WSW,4.6,-,N/A,,Overcast,240,2013-02-14 05:15:00
11:35 PM,33.8,28.4,81,29.69,10.0,SW,4.6,-,N/A,,Mostly Cloudy,220,2013-02-14 05:35:00
11:55 PM,32.0,28.4,87,29.69,10.0,SW,4.6,-,N/A,,Overcast,220,2013-02-14 05:55:00